Tracking 25963 objects as of 12-Aug-2022
HD Live streaming from Space Station
objects crossing your sky now

STARLINK-4008

Track STARLINK-4008 now!
10-day predictions
STARLINK-4008 is classified as:


NORAD ID: 52622
Int'l Code: 2022-052AA
Perigee: 545.8 km
Apogee: 547.7 km
Inclination: 53.2 °
Period: 95.4 minutes
Semi major axis: 6917 km
RCS: Unknown
Launch date: May 14, 2022
Source: United States (US)
Launch site: AIR FORCE EASTERN TEST RANGE (AFETR)
aabbcc
Your satellite tracking list
Your tracking list is empty




NASA's NSSDC Master Catalog

Two Line Element Set (TLE):
1 52622U 22052AA  22224.58334491 -.00043270  00000-0 -27141-2 0  9992
2 52622  53.2179  22.9591 0001318  94.4487 320.7605 15.08879681  1303
Source of the keplerian elements: AFSPC